[[{"header":{"parameterUnit":"m.s-1","parameterCategory":1,"la1":30.2991,"la2":30.254,"lo1":-89.0895,"lo2":-89.0444,"dy":0.0017,"dx":0.0017,"nx":28,"ny":28,"refTime":"2023-08-22T21:00:00:Z","depth":0,"parameterNumber":2,"parameterNumberName":"U-component_of_WINDS"},"data":[0,0,0,0,0,0,0,0,0,0,0,0,0,0,0,0,0,0,0,0,0,0,0,0,0,0,0,0,0,0,0,0,0,0,0,0,0,0,0,0,0,0,0,0,0,0,0,0,0,0,0,0,0,0,0,0,0,0,-3.5587,-3.5586,0,-3.5442,-3.5441,-3.5439,-3.528,-3.5278,-3.5275,-3.5273,-3.5125,-3.5123,-3.5121,0,0,0,0,0,0,0,0,0,0,0,0,0,-3.5729,-3.5727,-3.5588,-3.5586,-3.5584,-3.5443,-3.5441,-3.5439,-3.528,-3.5277,-3.5275,-3.5272,-3.5125,-3.5123,-3.5121,0,0,0,0,0,0,0,0,0,0,0,0,0,-3.5634,-3.5727,-3.5588,-3.5488,-3.5478,-3.5443,-3.544,-3.5438,-3.5281,-3.5277,-3.5274,-3.5271,-3.5126,-3.5123,-3.5121,-3.5173,0,0,-3.5112,-3.5111,0,0,0,0,0,0,0,0,-3.564,-3.5629,-3.5504,-3.5495,-3.5483,-3.5376,-3.5436,-3.5349,-3.5282,-3.5356,-3.5273,-3.5269,-3.5211,-3.5201,-3.5181,-3.5166,-3.516,-3.5112,-3.5111,-3.5109,-3.5109,0,0,0,0,0,0,0,-3.5646,-3.5634,-3.553,-3.5503,-3.549,-3.5451,-3.5433,-3.5419,-3.5304,-3.5349,-3.5337,-3.5322,-3.5205,-3.5184,-3.5177,-3.5157,-3.5112,-3.511,-3.5108,-3.5107,-3.5179,-3.5183,0,0,0,0,0,0,-3.5668,-3.5641,-3.5535,-3.5526,-3.5554,-3.5451,-3.5432,-3.5414,-3.5304,-3.5284,-3.5325,-3.5315,-3.5191,-3.518,-3.5171,-3.5226,-3.5109,-3.5107,-3.5105,-3.5176,-3.518,-3.5184,0,0,0,0,0,0,-3.5672,-3.566,-3.554,-3.558,-3.5562,-3.5452,-3.5433,-3.5413,-3.5392,-3.5286,-3.5265,-3.5326,-3.5188,-3.5175,-3.5174,-3.5219,-3.5106,-3.5103,-3.5172,-3.5177,-3.5182,-3.5337,0,0,0,0,0,0,-3.5676,-3.5662,-3.5681,-3.5582,-3.556,-3.5546,-3.5436,-3.5412,-3.5388,-3.5374,-3.5281,-3.5262,-3.5184,-3.5179,-3.5171,-3.5213,-3.5101,-3.5167,-3.5174,-3.518,-3.5327,-3.5347,-3.5364,0,0,0,0,0,-3.5682,-3.573,-3.5683,-3.5671,-3.5581,-3.5549,-3.5537,-3.5446,-3.5392,-3.541,-3.5342,-3.5265,-3.5215,-3.518,-3.517,-3.5212,-3.5164,-3.5172,-3.518,-3.5319,-3.5343,-3.5363,0,0,0,0,0,0,-3.5837,-3.5715,-3.5661,-3.5678,-3.5625,-3.5522,-3.5542,-3.5474,-3.5435,-3.5423,-3.5311,-3.5292,-3.5305,-3.5257,-3.5221,-3.5258,-3.5178,-3.5185,-3.5288,-3.531,-3.5328,-3.5339,-3.5099,0,0,0,0,0,-3.5873,-3.5857,-3.5751,-3.5777,-3.5753,-3.5653,-3.5635,-3.557,-3.551,-3.5487,-3.5419,-3.5364,-3.5336,-3.532,-3.5288,-3.5319,-3.5298,-3.5343,-3.5362,-3.5377,-3.5384,-3.5399,-3.5419,-3.521,-3.521,-3.521,0,0,-3.5948,-3.5879,-3.5876,-3.5806,-3.5757,-3.5744,-3.5635,-3.5625,-3.5614,-3.5485,-3.5481,-3.5429,-3.5361,-3.5378,-3.5381,-3.5339,-3.5437,-3.5387,-3.54,-3.5399,-3.5409,-3.5429,-3.5447,-3.5216,-3.5215,-3.5214,0,0,-3.6077,-3.6023,-3.6039,-3.5992,-3.592,-3.5853,-3.5858,-3.5765,-3.5726,-3.572,-3.5624,-3.5609,-3.5562,-3.5518,-3.549,-3.5605,-3.5533,-3.5597,-3.5693,-3.5708,-3.5725,-3.5739,-3.5782,-3.5798,-3.5605,-3.5605,-3.5605,0,-3.6179,-3.6154,-3.6056,-3.6052,-3.6025,-3.5908,-3.5924,-3.5884,-3.5806,-3.579,-3.5743,-3.5684,-3.5629,-3.5635,-3.5663,-3.5643,-3.5645,-3.5608,-3.573,-3.5744,-3.5755,-3.5795,-3.5811,-3.5613,-3.5612,-3.5612,-3.5611,0,-3.6284,-3.6269,-3.629,-3.6218,-3.6193,-3.62,-3.6103,-3.6089,-3.6026,-3.5965,-3.5961,-3.5892,-3.5845,-3.5841,-3.5779,-3.5838,-3.5814,-3.5751,-3.5669,-3.5785,-3.582,-3.5835,-3.5625,-3.5622,-3.562,-3.5618,0,0,-3.6507,-3.6381,-3.639,-3.6357,-3.6269,-3.6256,-3.6257,-3.6211,-3.6203,-3.6153,-3.6152,-3.6117,-3.6058,-3.6026,-3.5958,-3.5972,-3.6069,-3.5906,-3.5903,-3.594,-3.6132,-3.6182,-3.6201,-3.6021,-3.6023,-3.6025,-3.6138,0,-3.6622,-3.6617,-3.6529,-3.655,-3.6536,-3.6425,-3.6427,-3.6374,-3.6317,-3.6296,-3.6233,-3.621,-3.6133,-3.6113,-3.6122,-3.6056,-3.6106,-3.6046,-3.602,-3.6021,-3.6043,-3.6219,-3.6271,-3.6381,-3.6151,-3.6154,-3.6155,0,-3.6755,-3.6714,-3.6734,-3.6647,-3.6638,-3.6641,-3.6593,-3.6574,-3.6512,-3.6469,-3.6435,-3.6358,-3.6354,-3.6277,-3.6271,-3.6233,-3.6217,-3.6183,-3.6185,-3.618,-3.6096,-3.6221,-3.6414,-3.6432,-3.6176,-3.6174,-3.6172,0,-3.6918,-3.6867,-3.6873,-3.6847,-3.6746,-3.6751,-3.6709,-3.6643,-3.6622,-3.658,-3.6565,-3.6523,-3.6501,-3.6471,-3.6385,-3.6336,-3.639,-3.6305,-3.6356,-3.6359,-3.6373,-3.6374,-3.6569,-3.6361,-3.6361,-3.636,-3.636,0,-3.7057,-3.7074,-3.6945,-3.6949,-3.6965,-3.6864,-3.6883,-3.683,-3.6773,-3.6765,-3.6666,-3.6661,-3.6548,-3.653,-3.6463,-3.6469,-3.6459,-3.6426,-3.6408,-3.6436,-3.6441,-3.6425,-3.6416,-3.6365,-3.6364,-3.6363,-3.6362,0,-3.7242,-3.7156,-3.7156,-3.706,-3.7036,-3.7053,-3.6971,-3.6971,-3.6907,-3.6899,-3.6891,-3.6792,-3.6767,-3.6678,-3.663,-3.6585,-3.6613,-3.6578,-3.6635,-3.6624,-3.668,-3.6677,-3.6873,-3.6895,-3.6673,-3.6675,-3.6677,0,-3.7337,-3.7348,-3.7253,-3.7241,-3.7204,-3.7185,-3.7163,-3.7064,-3.7045,-3.6976,-3.6985,-3.6952,-3.6919,-3.6884,-3.6808,-3.6771,-3.6736,-3.6807,-3.6729,-3.6758,-3.6739,-3.674,-3.6742,-3.6824,-3.6827,-3.683,-3.6832,0,-3.7515,-3.7473,-3.7445,-3.7403,-3.738,-3.7342,-3.7298,-3.7294,-3.7183,-3.7168,-3.714,-3.7116,-3.7067,-3.7036,-3.6987,-3.6944,-3.6871,-3.6857,-3.6867,-3.6896,-3.6929,-3.6914,-3.6683,-3.6853,-3.6851,-3.6849,-3.6848,-3.6847,-3.7659,-3.7664,-3.7599,-3.7572,-3.7529,-3.7491,-3.7487,-3.7424,-3.7399,-3.7352,-3.7295,-3.7276,-3.7214,-3.7141,-3.7104,-3.7087,-3.7047,-3.7061,-3.7065,-3.7071,-3.7085,-3.6931,-3.7078,-3.7077,-3.7076,-3.7076,-3.7075,0,-3.7834,-3.7787,-3.7763,-3.7706,-3.7685,-3.7617,-3.7565,-3.7553,-3.7537,-3.7485,-3.7456,-3.7426,-3.7395,-3.7318,-3.728,-3.7282,-3.7248,-3.7276,-3.7275,-3.7267,-3.7122,-3.7118,-3.7304,-3.7304,-3.7304,-3.7304,-3.7304,-3.7304,-3.7923,-3.7929,-3.7879,-3.7863,-3.7815,-3.7795,-3.7772,-3.7737,-3.7696,-3.7666,-3.7641,-3.759,-3.7529,-3.7486,-3.7455,-3.7433,-3.7425,-3.7465,-3.7432,-3.7299,-3.7277,-3.7256,-3.7252,-3.7463,-3.7463,-3.7578,-3.7579,-3.758]},{"header":{"parameterUnit":"m.s-1","parameterCategory":1,"la1":30.2991,"la2":30.254,"lo1":-89.0895,"lo2":-89.0444,"dy":0.0017,"dx":0.0017,"nx":28,"ny":28,"refTime":"2023-08-22T21:00:00:Z","depth":0,"parameterNumber":3,"parameterNumberName":"V-component_of_WINDS"},"data":[0,0,0,0,0,0,0,0,0,0,0,0,0,0,0,0,0,0,0,0,0,0,0,0,0,0,0,0,0,0,0,0,0,0,0,0,0,0,0,0,0,0,0,0,0,0,0,0,0,0,0,0,0,0,0,0,0,0,-1.441,-1.4411,0,-1.4494,-1.4495,-1.4496,-1.451,-1.4509,-1.4508,-1.4507,-1.4594,-1.4597,-1.46,0,0,0,0,0,0,0,0,0,0,0,0,0,-1.426,-1.4262,-1.441,-1.4411,-1.4412,-1.4494,-1.4495,-1.4496,-1.451,-1.4509,-1.4508,-1.4507,-1.4593,-1.4597,-1.46,0,0,0,0,0,0,0,0,0,0,0,0,0,-1.4333,-1.4263,-1.441,-1.4429,-1.4431,-1.4494,-1.4495,-1.4497,-1.451,-1.4509,-1.4508,-1.4507,-1.4592,-1.4596,-1.4601,-1.465,0,0,-1.4614,-1.4616,0,0,0,0,0,0,0,0,-1.4328,-1.4338,-1.4425,-1.4427,-1.443,-1.449,-1.4474,-1.4548,-1.451,-1.448,-1.4507,-1.4506,-1.456,-1.4567,-1.4586,-1.4655,-1.4658,-1.4615,-1.4617,-1.4619,-1.4621,0,0,0,0,0,0,0,-1.4323,-1.4335,-1.4443,-1.4426,-1.4429,-1.4433,-1.4442,-1.4488,-1.4525,-1.4483,-1.4484,-1.4494,-1.4562,-1.4581,-1.4588,-1.466,-1.4615,-1.4619,-1.4621,-1.4623,-1.4773,-1.4774,0,0,0,0,0,0,-1.4315,-1.433,-1.4441,-1.4446,-1.4376,-1.4436,-1.4446,-1.4472,-1.4525,-1.4532,-1.4494,-1.4494,-1.4574,-1.4583,-1.4591,-1.4653,-1.4619,-1.4624,-1.4626,-1.4771,-1.4773,-1.4774,0,0,0,0,0,0,-1.4312,-1.4325,-1.4437,-1.4388,-1.4403,-1.444,-1.4469,-1.4474,-1.4494,-1.4534,-1.4541,-1.4508,-1.4574,-1.4585,-1.4635,-1.4656,-1.4626,-1.463,-1.477,-1.4772,-1.4773,-1.4776,0,0,0,0,0,0,-1.4307,-1.4323,-1.4343,-1.4389,-1.4405,-1.4481,-1.447,-1.4477,-1.4502,-1.4502,-1.4548,-1.4555,-1.4574,-1.4629,-1.464,-1.4661,-1.4633,-1.4768,-1.4771,-1.4773,-1.4775,-1.4778,-1.4781,0,0,0,0,0,-1.4302,-1.4341,-1.4344,-1.4357,-1.4431,-1.4482,-1.4491,-1.4512,-1.4503,-1.4523,-1.4548,-1.4553,-1.4651,-1.4634,-1.4646,-1.467,-1.4767,-1.477,-1.4773,-1.4773,-1.4777,-1.4781,0,0,0,0,0,0,-1.4297,-1.4347,-1.4351,-1.4406,-1.4439,-1.4484,-1.451,-1.4516,-1.4553,-1.4552,-1.4576,-1.4586,-1.4636,-1.4658,-1.4637,-1.472,-1.4708,-1.4714,-1.4704,-1.4709,-1.4712,-1.4706,-1.4637,0,0,0,0,0,-1.4302,-1.434,-1.4381,-1.4425,-1.4442,-1.4473,-1.4496,-1.4509,-1.4544,-1.4559,-1.4588,-1.4622,-1.4661,-1.4686,-1.4723,-1.4777,-1.4787,-1.4799,-1.4803,-1.4805,-1.481,-1.4839,-1.4845,-1.4784,-1.4784,-1.4784,0,0,-1.4314,-1.4346,-1.4368,-1.4425,-1.4453,-1.4491,-1.4485,-1.4525,-1.4553,-1.4565,-1.4615,-1.4637,-1.4677,-1.4729,-1.4754,-1.4749,-1.4829,-1.4809,-1.481,-1.4814,-1.4843,-1.4849,-1.4854,-1.4786,-1.4785,-1.4785,0,0,-1.4354,-1.4382,-1.4422,-1.4449,-1.449,-1.451,-1.452,-1.4563,-1.4578,-1.4628,-1.4637,-1.4671,-1.4737,-1.4765,-1.4788,-1.4836,-1.4842,-1.4848,-1.4865,-1.4894,-1.4899,-1.4903,-1.4921,-1.4927,-1.4852,-1.4852,-1.4852,0,-1.4363,-1.4421,-1.4441,-1.4481,-1.4506,-1.4517,-1.4558,-1.4583,-1.4634,-1.4651,-1.4645,-1.4727,-1.4755,-1.4814,-1.4825,-1.4843,-1.4855,-1.4843,-1.4896,-1.4901,-1.4905,-1.4922,-1.4929,-1.4853,-1.4853,-1.4853,-1.4853,0,-1.443,-1.4469,-1.4497,-1.4546,-1.4573,-1.4613,-1.4639,-1.4665,-1.4675,-1.4695,-1.4746,-1.4779,-1.4823,-1.4838,-1.4848,-1.4898,-1.4894,-1.4891,-1.488,-1.4911,-1.4928,-1.4934,-1.4853,-1.4853,-1.4853,-1.4853,0,0,-1.4472,-1.453,-1.454,-1.4562,-1.4607,-1.4638,-1.4678,-1.4721,-1.4742,-1.4777,-1.4811,-1.4865,-1.4863,-1.4889,-1.4903,-1.4927,-1.4964,-1.4922,-1.4924,-1.4929,-1.502,-1.5022,-1.503,-1.4967,-1.4968,-1.497,-1.5017,0,-1.4518,-1.4589,-1.4608,-1.4669,-1.4706,-1.4716,-1.475,-1.4782,-1.4801,-1.4835,-1.4857,-1.4895,-1.4889,-1.4905,-1.493,-1.4954,-1.4983,-1.4951,-1.4999,-1.5001,-1.499,-1.5038,-1.5041,-1.5084,-1.5024,-1.5025,-1.5026,0,-1.4582,-1.4617,-1.4681,-1.4721,-1.4737,-1.4768,-1.4809,-1.484,-1.4876,-1.4888,-1.4916,-1.4927,-1.4968,-1.4954,-1.5011,-1.4989,-1.5009,-1.5024,-1.5026,-1.5032,-1.5016,-1.5046,-1.5099,-1.5105,-1.5036,-1.5035,-1.5034,0,-1.4606,-1.4669,-1.4716,-1.4734,-1.4782,-1.4803,-1.4824,-1.4858,-1.4883,-1.4918,-1.4934,-1.4973,-1.4995,-1.5025,-1.5045,-1.5033,-1.5101,-1.5088,-1.5112,-1.5112,-1.5127,-1.5126,-1.5184,-1.5139,-1.5139,-1.5139,-1.5139,0,-1.4656,-1.4695,-1.4727,-1.4756,-1.48,-1.4821,-1.4863,-1.4884,-1.4914,-1.4947,-1.4958,-1.4988,-1.5013,-1.5047,-1.5063,-1.5108,-1.5118,-1.5129,-1.5133,-1.5129,-1.5127,-1.5143,-1.5141,-1.5141,-1.514,-1.514,-1.5139,0,-1.4691,-1.4714,-1.4766,-1.4806,-1.4817,-1.4848,-1.4882,-1.491,-1.4929,-1.497,-1.4981,-1.5012,-1.5052,-1.5075,-1.5125,-1.5136,-1.5186,-1.5188,-1.5174,-1.5176,-1.5199,-1.5197,-1.527,-1.5281,-1.5228,-1.5228,-1.5229,0,-1.4722,-1.4752,-1.4795,-1.4818,-1.4839,-1.4875,-1.49,-1.4921,-1.4946,-1.4987,-1.501,-1.5051,-1.5085,-1.5148,-1.5174,-1.5213,-1.5216,-1.5239,-1.5222,-1.5217,-1.5217,-1.5216,-1.5219,-1.5243,-1.5243,-1.5244,-1.5244,0,-1.4775,-1.4784,-1.4819,-1.4858,-1.4887,-1.4918,-1.495,-1.4967,-1.4993,-1.5021,-1.5062,-1.5088,-1.5139,-1.5179,-1.5219,-1.524,-1.5247,-1.5249,-1.5256,-1.5253,-1.5243,-1.5249,-1.5183,-1.5247,-1.5247,-1.5247,-1.5247,-1.5246,-1.4809,-1.4836,-1.487,-1.4909,-1.4934,-1.4963,-1.4991,-1.5013,-1.5048,-1.5091,-1.5101,-1.5144,-1.5177,-1.5232,-1.5254,-1.5287,-1.5283,-1.5295,-1.5297,-1.53,-1.5301,-1.5237,-1.5295,-1.5295,-1.5294,-1.5294,-1.5294,0,-1.4862,-1.4884,-1.4919,-1.4963,-1.4992,-1.4995,-1.5029,-1.5054,-1.5092,-1.5122,-1.5155,-1.5201,-1.524,-1.5268,-1.5308,-1.5329,-1.5333,-1.5339,-1.5338,-1.5342,-1.5302,-1.5292,-1.5335,-1.5335,-1.5335,-1.5335,-1.5335,-1.5335,-1.4894,-1.4939,-1.4953,-1.5011,-1.5033,-1.5075,-1.5094,-1.5121,-1.5145,-1.5196,-1.5228,-1.5246,-1.5276,-1.5317,-1.5353,-1.536,-1.5374,-1.538,-1.5388,-1.535,-1.5345,-1.5341,-1.5332,-1.5382,-1.5382,-1.5425,-1.5425,-1.5426]}]]